Weather History for PAFA - May, 2013

Change the Weather History Date:

Wednesday, May 22, 2013

  Actual Average Record
Temperature  
Mean Temperature 52 °F 52 °F  
Max Temperature 68 °F 64 °F 84 °F (1963)
Min Temperature 35 °F 40 °F 26 °F (1933)
Degree Days  
Heating Degree Days 13 13  
Month to date heating degree days 615 384  
Since 1 July heating degree days 14774 13408  
Cooling Degree Days 0 0  
Month to date cooling degree days 0 0  
Year to date cooling degree days 0 0  
Growing Degree Days 2 (Base 50)    
Moisture  
Dew Point 24 °F    
Average Humidity 34    
Maximum Humidity 67    
Minimum Humidity 11    
Precipitation  
Precipitation 0.00 in 0.02 in 0.30 in (1922)
Month to date precipitation 0.15 0.39  
Year to date precipitation 2.34 1.95  
Snow  
Snow 0.00 in 0.00 in T in (1968)
Month to date snowfall 2.0 0.8  
Since 1 July snowfall 68.6 64.9  
Snow Depth 0.00 in    
Sea Level Pressure  
Sea Level Pressure 30.04 in    
Wind  
Wind Speed 3 mph (SSW)    
Max Wind Speed 12 mph    
Max Gust Speed 22 mph    
Visibility 10 miles    
Events      
T = Trace of Precipitation, MM = Missing Value Source: NWS Daily Summary

Daily Weather History Graph

Daily Weather History Graph

Search for Another Location

Airport or City:

Trip Planner

Search our weather history database for the weather conditions in past years. The results will help you decide how hot, cold, wet, or windy it might be!

Date:

Astronomy

May. 22, 2013 Rise Set
Actual Time 4:03 AM AKDT 11:35 PM AKDT
Civil Twilight 2:20 AM AKDT 1:15 AM AKDT
Nautical Twilight Sun does not set Sun does not set
Astronomical Twilight Sun does not set Sun does not set
Moon 8:05 PM AKDT (5/22) 3:35 AM AKDT (5/22)
Length of Visible Light 22h 55m
Length of Day
19h 31m
Waxing Gibbous, 92% of the Moon is Illuminated
May 22
Waxing Gibbous
May 24
Full
May 31
Last Quarter
Jun 8
New
Jun 16
First Quarter

Hourly Weather History & Observations

Time (AKDT) Temp. Windchill Dew Point Humidity Pressure Visibility Wind Dir Wind Speed Gust Speed Precip Events Conditions
12:53 AM 45.0 °F 42.6 °F 23.0 °F 42% 30.13 in 10.0 mi NE 4.6 mph - N/A   Partly Cloudy
1:53 AM 37.9 °F 34.4 °F 24.1 °F 57% 30.13 in 10.0 mi NE 4.6 mph - N/A   Partly Cloudy
2:53 AM 37.9 °F - 25.0 °F 60% 30.12 in 10.0 mi Calm Calm - N/A   Partly Cloudy
3:53 AM 37.9 °F - 24.1 °F 57% 30.12 in 10.0 mi Calm Calm - N/A   Partly Cloudy
4:53 AM 35.1 °F 30.1 °F 24.1 °F 64% 30.12 in 10.0 mi NNE 5.8 mph - N/A   Partly Cloudy
5:53 AM 36.0 °F - 26.1 °F 67% 30.12 in 10.0 mi Calm Calm - N/A   Partly Cloudy
6:53 AM 43.0 °F - 27.0 °F 53% 30.11 in 10.0 mi Calm Calm - N/A   Partly Cloudy
7:53 AM 46.0 °F - 23.0 °F 40% 30.10 in 10.0 mi Calm Calm - N/A   Scattered Clouds
8:53 AM 50.0 °F - 23.0 °F 35% 30.09 in 10.0 mi Calm Calm - N/A   Partly Cloudy
9:53 AM 55.0 °F - 21.0 °F 27% 30.07 in 10.0 mi Calm Calm - N/A   Partly Cloudy
10:53 AM 59.0 °F - 19.0 °F 21% 30.06 in 10.0 mi Calm Calm - N/A   Partly Cloudy
11:53 AM 59.0 °F - 23.0 °F 25% 30.04 in 10.0 mi SSE 5.8 mph - N/A   Partly Cloudy
12:53 PM 61.0 °F - 24.1 °F 24% 30.03 in 10.0 mi SSE 9.2 mph - N/A   Scattered Clouds
1:53 PM 63.0 °F - 24.1 °F 23% 30.01 in 10.0 mi Variable 3.5 mph - N/A   Scattered Clouds
2:53 PM 64.9 °F - 24.1 °F 21% 29.99 in 10.0 mi Calm Calm - N/A   Scattered Clouds
3:53 PM 66.0 °F - 25.0 °F 21% 29.98 in 10.0 mi Variable 3.5 mph - N/A   Scattered Clouds
4:53 PM 66.0 °F - 21.9 °F 19% 29.97 in 10.0 mi Variable 3.5 mph - N/A   Scattered Clouds
5:53 PM 64.9 °F - 23.0 °F 20% 29.96 in 10.0 mi South 4.6 mph - N/A   Mostly Cloudy
6:53 PM 62.1 °F - 25.0 °F 24% 29.97 in 10.0 mi SW 9.2 mph 21.9 mph N/A   Mostly Cloudy
7:53 PM 60.1 °F - 26.1 °F 27% 29.98 in 10.0 mi WSW 11.5 mph 21.9 mph N/A   Scattered Clouds
8:53 PM 59.0 °F - 26.1 °F 28% 29.98 in 10.0 mi SW 9.2 mph - N/A   Scattered Clouds
9:53 PM 55.0 °F - 27.0 °F 34% 29.99 in 10.0 mi WSW 8.1 mph - N/A   Scattered Clouds
10:53 PM 54.0 °F - 27.0 °F 35% 29.99 in 10.0 mi SW 4.6 mph - N/A   Mostly Cloudy
11:53 PM 51.1 °F - 27.0 °F 39% 30.00 in 10.0 mi WSW 5.8 mph - N/A   Mostly Cloudy